Flag for U.S.A. Weather past 2 weeks in Little Rock, Arkansas, U.S.A.

Now
86 °F

Partly sunny.


Feels Like: 84 °F
Forecast: 62 / 85 °F
Wind: 6 mph from South

Location: Adams Field

Current Time: Sep 30, 2014 at 5:45:39 PM

Latest Report: Sep 30, 2014 at 4:53 PM


Visibility: 10 mi

Pressure: 29.85 "Hg

Humidity: 32%

Dew point: 53 °F

Location of Little RockLocation

Historic Weather in Little Rock — Graph

°F

Little Rock temperature yesterday

Maximum temperature yesterday: 88 °F (at 1:53 PM)
Minimum temperature yesterday: 64 °F (at 6:53 AM)
Average temperature yesterday: 75 °F

Past Weeks' High & Low Weather Summary

 TemperatureHumidityPressure
High91 °F (Sep 20, 2:53 PM)90% (Sep 20, 4:53 AM)30.27 "Hg (Sep 20, 4:53 AM)
Low54 °F (Sep 23, 4:53 AM)26% (Sep 23, 3:53 PM)29.85 "Hg (Sep 30, 4:53 PM)
Average73 °F66%30.07 "Hg
* Reported Sep 15 4:53 PM — Sep 30 4:53 PM, Little Rock, Weather by CustomWeather, © 2014

Note: Actual official high and low records may vary slightly from our data, if they occured in-between our weather recording intervals... More about our weather records

Advertising

Little Rock weather history for previous 24 hours

 ConditionsComfort  
Time TempWeatherWind HumidityBarometerVisibility
4:53 PM
Sep 30
86 °FPartly sunny.6 mph32%29.85 "Hg10 mi
3:53 PM88 °FPartly sunny.7 mph33%29.86 "Hg10 mi
2:53 PM88 °FPartly sunny.5 mph33%29.87 "Hg10 mi
1:53 PM86 °FPartly sunny.3 mph33%29.89 "Hg10 mi
12:53 PM85 °FPartly sunny.6 mph39%29.92 "Hg10 mi
11:53 AM84 °FPartly sunny.No wind40%29.93 "Hg10 mi
10:53 AM81 °FScattered clouds.No wind45%29.96 "Hg10 mi
9:53 AM76 °FScattered clouds.No wind54%29.97 "Hg10 mi
8:53 AM70 °FScattered clouds.3 mph66%29.96 "Hg10 mi
7:53 AM65 °FPassing clouds.No wind87%29.96 "Hg7 mi
6:53 AM64 °FPassing clouds.No wind87%29.96 "Hg10 mi
5:53 AM64 °FClear.No wind87%29.96 "Hg10 mi
4:53 AM65 °FClear.No wind85%29.95 "Hg10 mi
3:53 AM66 °FClear.No wind81%29.93 "Hg10 mi
2:53 AM65 °FClear.No wind85%29.92 "Hg10 mi
1:53 AM67 °FClear.No wind81%29.93 "Hg10 mi
12:53 AM67 °FClear.No wind81%29.93 "Hg10 mi
11:53 PM
Sep 29
68 °FPassing clouds.No wind78%29.94 "Hg10 mi
10:53 PM68 °FClear.No wind76%29.95 "Hg10 mi
9:53 PM71 °FClear.No wind71%29.95 "Hg10 mi
8:53 PM73 °FClear.No wind66%29.95 "Hg10 mi
7:53 PM76 °FPassing clouds.No wind58%29.93 "Hg10 mi
6:53 PM81 °FPassing clouds.5 mph42%29.93 "Hg10 mi
5:53 PM85 °FPassing clouds.7 mph36%29.93 "Hg10 mi
Weather by CustomWeather, © 2014

See weather overviewHow to use our weather pages